FW3337 Weather Reports


Display with metric or nautical units.
time (UTC)temp
F
wind
direction
speed
MPH
gust
MPH
rain 1hr
in
rain 24hr
in
rain mn
in
humidity
%
barometer
mb
20260504223011 71 197 2.0 9.0 0.00 0.00 0.00 36 1007.6
20260504221509 71 210 2.0 8.0 0.00 0.00 0.00 36 1007.7
20260504220007 71 272 3.0 10.0 0.00 0.00 0.00 35 1007.9
20260504214505 72 228 3.0 10.0 0.00 0.00 0.00 34 1008.0
20260504213013 72 210 2.0 9.0 0.00 0.00 0.00 33 1008.0
20260504211503 72 212 4.0 10.0 0.00 0.00 0.00 33 1008.0
20260504210002 72 199 3.0 12.0 0.00 0.00 0.00 33 1008.2
20260504204502 71 50 3.0 10.0 0.00 0.00 0.00 34 1008.1
20260504203101 71 220 3.0 11.0 0.00 0.00 0.00 34 1008.2
20260504201607 72 235 3.0 9.0 0.00 0.00 0.00 32 1008.3
20260504194604 72 256 4.0 10.0 0.00 0.00 0.00 33 1008.7
20260504193055 72 210 2.0 6.0 0.00 0.00 0.00 34 1008.6
20260504191610 71 189 4.0 10.0 0.00 0.00 0.00 33 1008.7
20260504190049 71 196 4.0 11.0 0.00 0.00 0.00 33 1008.9
20260504184555 71 216 3.0 10.0 0.00 0.00 0.00 33 1009.2
20260504183045 70 289 2.0 14.0 0.00 0.00 0.00 33 1009.3
20260504181542 70 164 3.0 13.0 0.00 0.00 0.00 33 1009.5
20260504180040 70 218 2.0 13.0 0.00 0.00 0.00 36 1009.8
20260504174537 69 218 4.0 11.0 0.00 0.00 0.00 35 1009.9
20260504173038 68 245 5.0 12.0 0.00 0.00 0.00 34 1010.2
20260504171534 68 186 5.0 11.0 0.00 0.00 0.00 34 1010.3
20260504081505 34 267 0.0 0.0 0.00 0.00 0.00 92 1012.9
20260504044542 38 267 0.0 0.0 0.00 0.00 0.00 86 1012.3
20260504043042 38 267 0.0 0.0 0.00 0.00 0.00 85 1012.1
20260504041536 39 267 0.0 0.0 0.00 0.00 0.00 84 1012.0
20260504040033 39 267 0.0 0.0 0.00 0.00 0.00 82 1011.9
20260504034531 40 267 0.0 0.0 0.00 0.00 0.00 81 1011.9
20260504033029 40 267 0.0 0.0 0.00 0.00 0.00 80 1011.9
20260504031526 41 267 0.0 0.0 0.00 0.00 0.00 78 1012.0
20260504030027 42 267 0.0 0.0 0.00 0.00 0.00 76 1011.9
20260504024623 43 267 0.0 0.0 0.00 0.00 0.00 74 1012.0
20260504023022 44 267 0.0 0.0 0.00 0.00 0.00 71 1011.9
20260504021524 45 267 0.0 0.0 0.00 0.00 0.00 67 1012.0
20260504020019 46 267 0.0 0.0 0.00 0.00 0.00 64 1012.0
20260504014519 48 267 0.0 0.0 0.00 0.00 0.00 61 1011.7
20260504013031 49 267 0.0 0.0 0.00 0.00 0.00 57 1011.6
20260504011518 51 267 0.0 0.0 0.00 0.00 0.00 52 1011.4
20260504010017 53 267 0.0 1.0 0.00 0.00 0.00 49 1011.2
20260504004515 54 267 0.0 0.0 0.00 0.00 0.00 42 1011.0
20260504003033 55 267 0.0 7.0 0.00 0.00 0.00 39 1010.9
20260504001515 55 311 1.0 6.0 0.00 0.00 0.00 38 1010.6
20260504000014 56 329 2.0 6.0 0.00 0.00 0.00 37 1010.4
20260503234514 56 262 0.0 4.0 0.00 0.00 0.00 38 1010.3
20260503233014 57 270 0.0 6.0 0.00 0.00 0.00 35 1010.2
20260503231514 57 268 0.0 3.0 0.00 0.00 0.00 34 1010.0
20260503230013 57 305 2.0 10.0 0.00 0.00 0.00 33 1009.8
20260503224524 58 293 4.0 9.0 0.00 0.00 0.00 32 1009.9